2024-247X

Last updated on Tue Jan 21 2025 00:02:04 GMT+0000 (Coordinated Universal Time)

1 62398U 24247X 25020.49273690 .00043297 00000+0 19080-2 0 9990 2 62398 44.9953 198.8977 0003190 190.6917 169.3897 15.21192346 4718
UTC large
Height (km)
Speed (km/s)
/
Latitude / Longitude
Inclination (degrees)
Orbital Period (minutes)
Azimuth
Elevation
Range (km)
Doppler Factor

Next 0 passes for location: London (51.5072 / 0.1276)

Sorry there are no passes over London.